Weather History for KCHS - June, 2013

Change the Weather History Date:

Sunday, June 23, 2013

  Actual Average Record
Temperature  
Mean Temperature 82 °F 80 °F  
Max Temperature 89 °F 90 °F 100 °F (1944)
Min Temperature 74 °F 71 °F 57 °F (1947)
Degree Days  
Heating Degree Days 0 0  
Month to date heating degree days 0 0  
Since 1 June heating degree days 0 0  
Since 1 July heating degree days 1846 1975  
Cooling Degree Days 17 15  
Month to date cooling degree days 345 310  
Year to date cooling degree days 692 672  
Since 1 June cooling degree days 345 310  
Growing Degree Days 31 (Base 50)    
Moisture  
Dew Point 72 °F    
Average Humidity 73    
Maximum Humidity 87    
Minimum Humidity 59    
Precipitation  
Precipitation T in 0.20 in 5.20 in (1963)
Month to date precipitation 9.76 4.16  
Year to date precipitation 33.20 20.47  
Sea Level Pressure  
Sea Level Pressure 30.17 in    
Wind  
Wind Speed 6 mph (SE)    
Max Wind Speed 20 mph    
Max Gust Speed 22 mph    
Visibility 10 miles    
Events Rain , Thunderstorm    
T = Trace of Precipitation, MM = Missing Value Source: NWS Daily Summary

Daily Weather History Graph

Daily Weather History Graph

Search for Another Location

Airport or City:

Trip Planner

Search our weather history database for the weather conditions in past years. The results will help you decide how hot, cold, wet, or windy it might be!

Date:

Astronomy

Jun. 23, 2013 Rise Set
Actual Time 6:12 AM EDT 8:32 PM EDT
Civil Twilight 5:44 AM EDT 9:00 PM EDT
Nautical Twilight 5:08 AM EDT 9:35 PM EDT
Astronomical Twilight 4:30 AM EDT 10:14 PM EDT
Moon 8:47 PM EDT (6/23) 6:24 AM EDT (6/23)
Length of Visible Light 15h 16m
Length of Day
14h 19m
Full, 100% of the Moon is Illuminated
Jun 23
Full
Jun 30
Last Quarter
Jul 8
New
Jul 15
First Quarter
Jul 22
Full

Hourly Weather History & Observations

Time (EDT) Temp. Heat Index Dew Point Humidity Pressure Visibility Wind Dir Wind Speed Gust Speed Precip Events Conditions
12:56 AM 75.9 °F - 72.0 °F 87% 30.16 in 10.0 mi Calm Calm - N/A   Scattered Clouds
1:56 AM 75.9 °F - 72.0 °F 87% 30.15 in 10.0 mi Calm Calm - N/A   Scattered Clouds
2:56 AM 75.9 °F - 72.0 °F 87% 30.14 in 10.0 mi SE 3.5 mph - N/A   Scattered Clouds
3:56 AM 75.0 °F - 72.0 °F 90% 30.14 in 10.0 mi Calm Calm - N/A   Mostly Cloudy
4:56 AM 75.0 °F - 72.0 °F 90% 30.14 in 10.0 mi Calm Calm - N/A   Mostly Cloudy
5:56 AM 75.0 °F - 72.0 °F 90% 30.15 in 10.0 mi Calm Calm - N/A   Scattered Clouds
6:56 AM 75.0 °F - 72.0 °F 90% 30.16 in 9.0 mi Calm Calm - N/A   Mostly Cloudy
7:56 AM 79.0 °F - 73.9 °F 84% 30.17 in 10.0 mi Calm Calm - N/A   Scattered Clouds
8:42 AM 80.6 °F 85.4 °F 73.4 °F 79% 30.19 in 10.0 mi ESE 3.5 mph - N/A   Mostly Cloudy
8:56 AM 81.0 °F 86.2 °F 73.9 °F 79% 30.19 in 10.0 mi East 4.6 mph - N/A   Mostly Cloudy
9:56 AM 82.9 °F 87.5 °F 71.1 °F 67% 30.19 in 10.0 mi Calm Calm - N/A   Mostly Cloudy
10:56 AM 87.1 °F 93.6 °F 72.0 °F 61% 30.20 in 10.0 mi NNE 4.6 mph - N/A   Mostly Cloudy
11:27 AM 87.8 °F 93.8 °F 71.6 °F 58% 30.19 in 10.0 mi Calm Calm - N/A   Scattered Clouds
11:56 AM 86.0 °F 91.5 °F 71.1 °F 61% 30.19 in 10.0 mi Calm Calm - N/A   Scattered Clouds
12:51 PM 84.2 °F 89.6 °F 71.6 °F 66% 30.19 in 10.0 mi East 10.4 mph - N/A Thunderstorm Thunderstorm
12:56 PM 84.0 °F 89.0 °F 71.1 °F 65% 30.19 in 10.0 mi ESE 12.7 mph - N/A Thunderstorm Thunderstorm
1:19 PM 80.6 °F 85.4 °F 73.4 °F 79% 30.19 in 10.0 mi SSE 8.1 mph - 0.00 in Rain Light Rain
1:56 PM 86.0 °F 92.2 °F 72.0 °F 63% 30.17 in 10.0 mi ESE 5.8 mph - 0.00 in   Scattered Clouds
2:56 PM 87.1 °F 93.6 °F 72.0 °F 61% 30.15 in 10.0 mi Variable 5.8 mph - N/A   Mostly Cloudy
3:56 PM 87.1 °F 93.6 °F 72.0 °F 61% 30.14 in 10.0 mi ESE 13.8 mph 19.6 mph N/A   Mostly Cloudy
4:56 PM 84.9 °F 90.1 °F 71.1 °F 63% 30.14 in 10.0 mi ESE 11.5 mph - N/A   Mostly Cloudy
5:56 PM 82.9 °F 87.0 °F 70.0 °F 65% 30.14 in 10.0 mi SSE 11.5 mph - N/A   Mostly Cloudy
6:56 PM 82.0 °F 86.7 °F 72.0 °F 71% 30.15 in 10.0 mi SSE 10.4 mph - N/A   Mostly Cloudy
7:54 PM 80.6 °F 85.4 °F 73.4 °F 79% 30.16 in 10.0 mi SSE 9.2 mph - 0.00 in Rain Light Rain
7:56 PM 81.0 °F 85.8 °F 73.0 °F 77% 30.16 in 10.0 mi SSE 13.8 mph - 0.00 in Rain Light Rain
8:47 PM 80.6 °F 85.4 °F 73.4 °F 79% 30.16 in 10.0 mi SSE 9.2 mph - 0.00 in   Mostly Cloudy
8:56 PM 79.0 °F - 73.0 °F 82% 30.16 in 10.0 mi SSE 8.1 mph - 0.00 in   Mostly Cloudy
9:56 PM 80.1 °F 84.5 °F 73.9 °F 81% 30.18 in 10.0 mi SE 8.1 mph - N/A   Mostly Cloudy
10:27 PM 80.6 °F 85.4 °F 73.4 °F 79% 30.19 in 10.0 mi SSE 9.2 mph - N/A   Mostly Cloudy
10:56 PM 79.0 °F - 73.0 °F 82% 30.17 in 10.0 mi SSE 8.1 mph - N/A   Mostly Cloudy
11:56 PM 79.0 °F - 73.9 °F 84% 30.18 in 10.0 mi South 6.9 mph - N/A   Partly Cloudy